Regional Weather Roundup
Issued by NWS

Home | Current Version | Previous Version | Text Only | Print | Product List | Glossary On
Versions: 1 2 3 4 5 6 7 8 9 10 11 12 13 14 15 16 17 18 19 20 21 22 23 24 25 26 27 28 29 30 31 32 33 34 35 36 37 38 39 40 41 42 43 44 45 46 47 48 49 50
000
ASUS44 KFWD 270415
RWRTX
NORTH TEXAS HOURLY WEATHER ROUNDUP
NATIONAL WEATHER SERVICE FORT WORTH TX
1100 PM CDT SAT MAY 26 2018

NOTE: "FAIR" INDICATES FEW OR NO CLOUDS BELOW 12,000 FEET WITH NO
SIGNIFICANT WEATHER AND/OR OBSTRUCTIONS TO VISIBILITY.

TXZ118-119-270500-
DALLAS/FORT WORTH METROPLEX

CITY           SKY/WX    TMP DP  RH WIND       PRES   REMARKS
DFW AIRPORT    FAIR      82  64  54 SE8       29.79R
DALLAS LOVE    FAIR      85  65  51 SE7       29.79R
FTW MEACHAM    FAIR      88  67  49 E8        29.79R HX  91
DAL-EXECUTIVE  FAIR      83  66  56 SE7       29.80R
FTW-ALLIANCE   FAIR      86  64  47 E9        29.80R
FTW-NAS-JRB    FAIR      87  64  46 E9        29.80R
FTW-SPINKS     FAIR      79  67  66 SE3       29.82R
ARLINGTON      FAIR      81  68  64 SE3       29.80R
GRAND PRAIRIE  FAIR      85  62  46 E6        29.81R
ADDISON        FAIR      85  64  47 SE5       29.82S
MESQUITE       FAIR      77  69  76 SE5       29.81R
LANCASTER      FAIR      80  68  67 SE3       29.81R
$$

TXZ091>094-102>105-117-120-121-131>134-270500-
NORTH CENTRAL TEXAS

CITY           SKY/WX    TMP DP  RH WIND       PRES   REMARKS
SHRMAN/DENISON FAIR      79  70  73 E7        29.83R
GAINESVILLE    FAIR      78  67  69 E5        29.85R
BOWIE          FAIR      79  66  64 E5        29.82R
BRIDGEPORT     FAIR      81  65  58 E3        29.82R
DECATUR        FAIR      80  67  63 CALM      29.82R
DENTON         FAIR      84  64  50 SE6       29.80R
MCKINNEY       FAIR      80  72  76 CALM      29.81R
BONHAM         FAIR      76  70  81 E3        29.83R
GREENVILLE     FAIR      81  70  69 CALM      29.83R
ROCKWALL       FAIR      82  68  63 SE5       29.81R
TERRELL        FAIR      81  70  69 CALM      29.81R
WAXAHACHIE     FAIR      79  69  71 CALM      29.82R
CLEBURNE       FAIR      84  68  58 E13       29.82R
GRANBURY       MOCLDY    86  66  52 E9        29.81R
$$

TXZ083>090-098>101-113>116-127>130-139>142-154-155-270500-
WESTERN NORTH TEXAS

CITY           SKY/WX    TMP DP  RH WIND       PRES   REMARKS
WICHITA FALLS  FAIR      80  69  69 E12       29.80R
WF-KICKAPOO    FAIR      81  69  67 E14       29.82R
VERNON         FAIR      83  66  56 E12       29.80R
ABILENE        FAIR      82  62  50 SE14      29.79R
ABILENE-DYESS  FAIR      86  58  38 SE12      29.78R
GRAHAM           N/A     82  63  51 E7        29.78R
BRECKENRIDGE   FAIR      85  61  43 SE10      29.79R
CISCO          FAIR      81  63  54 SE10      29.81R
EASTLAND       FAIR      81  64  57 SE7       29.81R
RANGER         FAIR      79  65  62 E6        29.82R
MINERAL WELLS  FAIR      80  64  58 SE9       29.78R
STEPHENVILLE   FAIR      81  65  57 E8        29.84R
COMANCHE       FAIR      79  67  66 SE7       29.81R
BROWNWOOD      FAIR      82  64  54 SE9       29.79R
COLEMAN        FAIR      83  59  44 SE5       29.80R
BRADY          FAIR      84  59  42 S9        29.81R
$$

TXZ143>147-156>162-174-175-270500-
CENTRAL TEXAS

CITY           SKY/WX    TMP DP  RH WIND       PRES   REMARKS
WACO           MOCLDY    86  69  56 SE13      29.78R HX  90
WACO-TSTC      CLEAR     84  72  65 SE5       29.79R
WACO-MCGREGOR  FAIR      83  70  64 SE10      29.80R
HILLSBORO      FAIR      82  73  73 E9        29.80R
CORSICANA      FAIR      81  73  76 SE6       29.81R
MEXIA          FAIR      80  71  75 S7        29.80S
HEARNE         FAIR      82  70  68 SE3       29.80S
CAMERON        FAIR      83  70  65 SE8       29.80R
TEMPLE         FAIR      84  70  62 SE10      29.80R
KILLEEN        FAIR      82  69  64 SE9       29.79R
KILLEEN-SKYLRK FAIR      84  70  62 SE9       29.81R
FORT HOOD      FAIR      84  68  58 SE10      29.77R
GATESVILLE     FAIR      82  70  65 SE6       29.82R
HAMILTON       FAIR      82  68  61 SE12      29.82R
LAMPASAS       FAIR      82  70  67 SE7       29.80R
$$

TXZ095>097-106>112-122>126-135>138-148>153-164>167-270500-
EAST TEXAS

CITY           SKY/WX    TMP DP  RH WIND       PRES   REMARKS
PARIS          FAIR      78  72  81 E5        29.83S
SULPHUR SPRNGS FAIR      78  70  76 CALM      29.84R
MOUNT PLEASANT FAIR      76  71  83 CALM      29.84R
GILMER         FAIR      76  72  87 CALM      29.82R
MINEOLA        FAIR      75  72  88 CALM      29.81S
TYLER          FAIR      82  69  64 SE9       29.82R
LONGVIEW       FAIR      78  72  81 SE3       29.81R
MARSHALL       FAIR      73  68  86 CALM      29.85R
ATHENS         FAIR      79  72  78 CALM      29.80R
PALESTINE      FAIR      80  71  73 E7        29.83R
JACKSONVILLE   FAIR      76  64  65 S6        29.85R
HENDERSON      FAIR      76  66  71 S3        29.84R
CENTER         FAIR      70  69  95 CALM      29.85R
NACOGDOCHES      N/A     70  68  93 CALM      29.83S
LUFKIN         FAIR      71  67  87 CALM      29.82R
$$

SUPPLEMENTAL OBSERVATIONS (NWS FORT WORTH AREA)

CITY           SKY/WX    TMP DP  RH WIND       PRES   REMARKS
DENISON DAM      N/A     79  70  73 SE5         N/A
CADDO GRASSLND   N/A     75  72  88 S1          N/A
LBJ GRASSLAND    N/A     81  64  57 E6          N/A
POSSUM KINGDOM   N/A     82  61  47 E7          N/A
GRANBURY         N/A     84  64  51 E10         N/A
COMANCHE         N/A     79  64  61 SE8         N/A
MCGREGOR         N/A     84  68  58 SE9         N/A
TEMPLE           N/A     82  68  61 SE6         N/A
LAKE LIMESTONE   N/A     81  72  74 SE3         N/A
ATHENS           N/A     82  72  69 E6          N/A
PALESTINE        N/A     77  68  73 SE2         N/A
$$

SUPPLEMENTAL OBSERVATIONS (NWS NORMAN AREA)

CITY           SKY/WX    TMP DP  RH WIND       PRES   REMARKS
GOODLETT         N/A     81  65  58 E12       29.80R
ODELL            N/A     82  67  62 E12       29.82R
CROWELL          N/A     82  67  61 E12       29.81R
KNOX CITY        N/A     84  67  58 E10       29.79R
SEYMOUR          N/A     82  67  61 E10       29.80R
MILLERS CREEK    N/A     81  66  61 E7          N/A
$$

SUPPLEMENTAL OBSERVATIONS (NWS SAN ANGELO AREA)

CITY           SKY/WX    TMP DP  RH WIND       PRES   REMARKS
WEINERT          N/A     85  67  55 E10       29.79R
HASKELL          N/A     84  58  41 E10       29.79R
THROCKMORTON     N/A     81  65  58 SE7       29.81R
STAMFORD         N/A     84  64  49 SE12      29.79R
CLYDE            N/A     81  63  54 SE10      29.83R
HAMBY            N/A     81  63  54 E7          N/A
IVIE RESERVOIR   N/A     82  57  42 E8          N/A
COLORADO BEND    N/A     84  63  48 SE8         N/A
$$

SUPPLEMENTAL OBSERVATIONS (NWS SHREVEPORT AREA)

CITY           SKY/WX    TMP DP  RH WIND       PRES   REMARKS
CADDO LAKE       N/A     72  68  88 CALM        N/A
LUFKIN           N/A     72  68  88 MISG        N/A
N SABINE NF      N/A     72  70  94 MISG        N/A
$$

SUPPLEMENTAL OBSERVATIONS ARE A COLLECTION OF AUTOMATED INSTRUMENTS
THAT ARE MAINTAINED BY A VARIETY OF FEDERAL AND STATE AGENCIES.
CERTAIN ELEMENTS...SUCH AS HUMIDITY VALUES AND SUSTAINED WIND
SPEEDS...MAY BE APPROXIMATED.





USA.gov is the U.S. government's official web portal to all federal, state and local government web resources and services.